Weather History for Tampa Macdill AFB, FL

Change the Weather History Date:

Wednesday, October 31, 2012

  Actual Average Record
Temperature  
Mean Temperature 62 °F -  
Max Temperature 73 °F 79 °F 87 °F (1999)
Min Temperature 51 °F 62 °F 51 °F (2012)
Degree Days  
Heating Degree Days 3    
Growing Degree Days 12 (Base 50)    
Moisture  
Dew Point 53 °F    
Average Humidity 66    
Maximum Humidity 92    
Minimum Humidity 48    
Precipitation  
Precipitation 0.01 in - - ()
Sea Level Pressure  
Sea Level Pressure 30.03 in    
Wind  
Wind Speed 8 mph (NNW)    
Max Wind Speed 14 mph    
Max Gust Speed 18 mph    
Visibility 9 miles    
Events      
Averages and records for this station are not official NWS values.
T = Trace of Precipitation, MM = Missing Value Source: NWS Daily Summary

Daily Weather History Graph

Daily Weather History Graph

Search for Another Location

Airport:

Trip Planner

Search our weather history database for the weather conditions in past years. The results will help you decide how hot, cold, wet, or windy it might be!

Date:

Astronomy

Oct. 31, 2012 Rise Set
Actual Time 7:40 AM EDT 6:46 PM EDT
Civil Twilight 7:16 AM EDT 7:10 PM EDT
Nautical Twilight 6:48 AM EDT 7:38 PM EDT
Astronomical Twilight 6:21 AM EDT 8:05 PM EDT
Moon 8:06 PM EDT (10/31) 9:11 AM EDT (10/31)
Length of Visible Light 11h 53m
Length of Day
11h 05m
Full, 97% of the Moon is Illuminated
Oct 31
Full
Nov 6
Last Quarter
Nov 13
New
Nov 20
First Quarter
Nov 28
Full

Hourly Weather History & Observations

Time (EDT) Temp. Dew Point Humidity Pressure Visibility Wind Dir Wind Speed Gust Speed Precip Events Conditions
12:55 AM 63.9 °F 52.0 °F 65% 29.99 in 10.0 mi NW 11.5 mph - N/A   Clear
1:55 AM 63.7 °F 52.3 °F 67% 29.99 in 10.0 mi NW 9.2 mph - N/A   Clear
2:55 AM 63.9 °F 52.9 °F 67% 30.00 in 10.0 mi NW 8.1 mph - N/A   Clear
3:55 AM 63.5 °F 53.6 °F 70% 29.99 in 10.0 mi NNW 6.9 mph - N/A   Partly Cloudy
4:55 AM 61.9 °F 53.2 °F 73% 30.00 in 10.0 mi NNW 4.6 mph - N/A   Clear
5:55 AM 59.5 °F 51.4 °F 75% 30.01 in 10.0 mi ENE 6.9 mph - N/A   Clear
6:55 AM 54.1 °F 49.6 °F 85% 30.02 in 10.0 mi East 6.9 mph - N/A   Clear
7:55 AM 51.6 °F 47.7 °F 86% 30.04 in 10.0 mi ESE 3.5 mph - N/A   Clear
8:55 AM 58.6 °F 52.7 °F 81% 30.06 in 10.0 mi ENE 5.8 mph - N/A   Partly Cloudy
9:55 AM 64.2 °F 48.7 °F 57% 30.08 in 10.0 mi Variable 4.6 mph - N/A   Clear
10:15 AM 66.2 °F 48.2 °F 52% 30.08 in 2.0 mi NNE 5.8 mph - N/A   Haze
10:16 AM 66.2 °F 48.2 °F 52% 30.09 in 1.8 mi NNE 5.8 mph - N/A   Haze
10:55 AM 69.4 °F 49.6 °F 49% 30.09 in 10.0 mi North 8.1 mph - N/A   Clear
11:55 AM 71.4 °F 50.5 °F 48% 30.09 in 10.0 mi Calm Calm - N/A   Clear
12:55 PM 73.0 °F 52.0 °F 48% 30.06 in 10.0 mi NNW 8.1 mph - N/A   Clear
1:55 PM 72.0 °F 51.1 °F 48% 30.04 in 10.0 mi North 11.5 mph - N/A   Clear
2:55 PM 72.0 °F 51.3 °F 48% 30.02 in 10.0 mi North 13.8 mph 18.4 mph N/A   Clear
3:55 PM 71.2 °F 51.6 °F 50% 30.01 in 10.0 mi NNW 12.7 mph - N/A   Clear
4:55 PM 70.7 °F 52.3 °F 52% 30.01 in 10.0 mi North 9.2 mph - N/A   Clear
5:55 PM 70.0 °F 54.0 °F 57% 30.01 in 10.0 mi NNW 5.8 mph - N/A   Clear
6:55 PM 66.6 °F 54.1 °F 64% 30.02 in 10.0 mi WNW 5.8 mph - N/A   Clear
7:55 PM 64.4 °F 55.4 °F 73% 30.03 in 10.0 mi WSW 6.9 mph - N/A   Clear
8:55 PM 62.4 °F 56.3 °F 80% 30.04 in 10.0 mi WSW 6.9 mph - N/A   Clear
9:55 PM 63.0 °F 58.8 °F 86% 30.04 in 10.0 mi WNW 4.6 mph - N/A   Clear
10:55 PM 64.0 °F 60.8 °F 89% 30.05 in 10.0 mi West 3.5 mph - N/A   Clear
11:55 PM 64.6 °F 62.1 °F 92% 30.05 in 10.0 mi West 3.5 mph - N/A   Scattered Clouds